עמוד ראשי
METAR-TAF:

METAR-TAF

שדות תעופה :

Salinas, אקוודור

קו רוחב: 02-12-18S, קו אורך: 080-59-20W, גובה: 5מטר

תצפית מזג אוויר נוכחית

הדו"ח נערך לפני 57דקות, בשעה 16:00 UTC
רוח 6קשר מכיוון דרום-מערב
טמפרטורת 29 צלסיוס
לחות 74%
לחץ 1012 hPa
ראות 10 קילומטר או יותר
מעט עננים בגובה 1000רגל
עננים פזורים בגובה 10000רגל

METAR: SESA 241600Z 23006KT 9999 FEW010 SCT100 29/24 Q1012 RMK A2989

זמן: 11:57 (16:57 UTC)


TAF: חסר

תצפיות ותחזיות מזג אוויר לגבי יותר מ- 4,000 שדות תעופה ברחבי העולם. דוחות METAR ו- TAF.

התחנות הזמינות מסומנות בנקודות צהובות ואדומות על גבי המפה.

העבר את העכבר לנקודה הצבעונית על מנת לראות את שם התחנה.

לאחר מכן, לחץ כדי לראות את תוכן ואת תחזיות מזג האוויר.

כדי לשנות את המפה: לחץ על הכפתורים הירוקים עם הפלוס השחור כדי להתקרב; על הכפתור הירוק עם המקף כדי להתרחק; או בחיצים הירוקים למפות סמוכות.


METAR-TAF: